Weather History for KRDG - February, 2012

Change the Weather History Date:

Thursday, February 2, 2012

  Actual Average Record
Temperature  
Mean Temperature 42 °F 30 °F  
Max Temperature 48 °F 39 °F 61 °F (1983)
Min Temperature 36 °F 21 °F -2 °F (1918)
Degree Days  
Heating Degree Days 23 35  
Month to date heating degree days 34 70  
Since 1 July heating degree days 2592 3195  
Cooling Degree Days 0 0  
Month to date cooling degree days 0 0  
Year to date cooling degree days 0 0  
Moisture  
Dew Point 30 °F    
Average Humidity 64    
Maximum Humidity 76    
Minimum Humidity 52    
Precipitation  
Precipitation 0.00 in 0.08 in 1.13 in (1956)
Month to date precipitation 0.01 0.16  
Year to date precipitation 2.39 3.21  
Sea Level Pressure  
Sea Level Pressure 30.11 in    
Wind  
Wind Speed 8 mph (NNW)    
Max Wind Speed 22 mph    
Max Gust Speed 30 mph    
Visibility 10 miles    
Events      
T = Trace of Precipitation, MM = Missing Value Source: NWS Daily Summary

Daily Weather History Graph

Daily Weather History Graph

Search for Another Location

Airport or City:

Trip Planner

Search our weather history database for the weather conditions in past years. The results will help you decide how hot, cold, wet, or windy it might be!

Date:

Astronomy

Feb. 02, 2012 Rise Set
Actual Time 7:12 AM EST 5:22 PM EST
Civil Twilight 6:43 AM EST 5:51 PM EST
Nautical Twilight 6:11 AM EST 6:24 PM EST
Astronomical Twilight 5:39 AM EST 6:56 PM EST
Moon 12:32 PM EST (2/2) 2:53 AM EST (2/2)
Length of Visible Light 11h 07m
Length of Day
10h 10m
Waxing Gibbous, 73% of the Moon is Illuminated
Feb 2
Waxing Gibbous
Feb 7
Full
Feb 14
Last Quarter
Feb 21
New
Feb 29
First Quarter

Hourly Weather History & Observations

Time (EST) Temp. Windchill Dew Point Humidity Pressure Visibility Wind Dir Wind Speed Gust Speed Precip Events Conditions
12:54 AM 42.1 °F 39.2 °F 35.1 °F 76% 30.01 in 10.0 mi NNW 4.6 mph - N/A   Clear
1:54 AM 42.1 °F 37.7 °F 35.1 °F 76% 30.02 in 10.0 mi NW 6.9 mph - N/A   Clear
2:54 AM 41.0 °F 38.0 °F 34.0 °F 76% 30.01 in 10.0 mi North 4.6 mph - N/A   Clear
3:54 AM 43.0 °F 40.3 °F 33.1 °F 68% 30.00 in 10.0 mi NE 4.6 mph - N/A   Clear
4:54 AM 42.1 °F - 30.9 °F 65% 30.02 in 10.0 mi Calm Calm - N/A   Clear
5:54 AM 39.0 °F - 30.0 °F 70% 30.03 in 10.0 mi Calm Calm - N/A   Clear
6:54 AM 37.9 °F 35.5 °F 30.9 °F 76% 30.05 in 10.0 mi NNW 3.5 mph - N/A   Clear
7:54 AM 37.9 °F - 30.9 °F 76% 30.06 in 10.0 mi Calm Calm - N/A   Clear
8:54 AM 41.0 °F 38.0 °F 33.1 °F 73% 30.07 in 10.0 mi NNW 4.6 mph - N/A   Clear
9:54 AM 42.1 °F 39.2 °F 32.0 °F 67% 30.07 in 10.0 mi Variable 4.6 mph - N/A   Overcast
10:54 AM 43.0 °F 41.3 °F 32.0 °F 65% 30.09 in 10.0 mi Variable 3.5 mph - N/A   Overcast
11:54 AM 44.1 °F 41.5 °F 30.9 °F 60% 30.08 in 10.0 mi North 4.6 mph - N/A   Overcast
12:54 PM 45.0 °F 41.8 °F 30.9 °F 58% 30.06 in 10.0 mi North 5.8 mph - N/A   Mostly Cloudy
1:54 PM 45.0 °F 40.6 °F 30.9 °F 58% 30.06 in 10.0 mi NNW 8.1 mph - N/A   Overcast
2:54 PM 45.0 °F 38.9 °F 30.9 °F 58% 30.09 in 10.0 mi NW 12.7 mph - N/A   Overcast
3:54 PM 42.1 °F 34.9 °F 30.0 °F 62% 30.12 in 10.0 mi NW 13.8 mph - N/A   Overcast
4:54 PM 39.9 °F 32.5 °F 30.9 °F 70% 30.15 in 10.0 mi NW 12.7 mph - N/A   Overcast
5:54 PM 39.9 °F 32.1 °F 30.0 °F 68% 30.18 in 10.0 mi NW 13.8 mph - N/A   Overcast
6:54 PM 39.9 °F 31.4 °F 28.9 °F 65% 30.21 in 10.0 mi NW 16.1 mph - N/A   Overcast
7:54 PM 39.9 °F 33.4 °F 27.0 °F 60% 30.24 in 10.0 mi NNW 10.4 mph - N/A   Overcast
8:54 PM 39.0 °F 30.3 °F 25.0 °F 57% 30.26 in 10.0 mi NNW 16.1 mph 20.7 mph N/A   Overcast
9:54 PM 39.0 °F 29.9 °F 24.1 °F 55% 30.29 in 10.0 mi NNW 17.3 mph - N/A   Overcast
10:54 PM 37.9 °F 28.5 °F 21.9 °F 53% 30.30 in 10.0 mi NNW 17.3 mph 27.6 mph N/A   Mostly Cloudy
11:54 PM 37.0 °F 29.8 °F 21.0 °F 52% 30.31 in 10.0 mi NNW 10.4 mph 19.6 mph N/A   Clear